Бобошево - ТХ сензор клетка Measurements

Back to Overview

Timestamp Temperature Humidity
5/4/2026 5:37:58 PM 21,8 C 36.0%
5/4/2026 5:30:55 PM 21,9 C 36.0%
5/4/2026 5:23:52 PM 22,0 C 36.0%
5/4/2026 5:16:56 PM 22,0 C 36.0%
5/4/2026 5:09:47 PM 21,7 C 35.0%
5/4/2026 5:02:46 PM 21,6 C 35.0%
5/4/2026 4:55:43 PM 21,6 C 35.0%
5/4/2026 4:48:41 PM 21,4 C 37.0%
5/4/2026 4:41:38 PM 21,4 C 36.0%
5/4/2026 4:34:36 PM 21,7 C 36.0%
5/4/2026 4:27:34 PM 21,8 C 36.0%
5/4/2026 4:20:32 PM 21,7 C 34.0%
5/4/2026 4:13:29 PM 21,6 C 37.0%
5/4/2026 4:06:25 PM 21,5 C 37.0%
5/4/2026 3:59:24 PM 21,5 C 36.0%
5/4/2026 3:52:20 PM 21,4 C 37.0%
5/4/2026 3:45:17 PM 21,4 C 36.0%
5/4/2026 3:38:14 PM 21,7 C 36.0%
5/4/2026 3:31:12 PM 21,7 C 36.0%
5/4/2026 3:24:16 PM 21,7 C 37.0%
5/4/2026 3:17:08 PM 21,6 C 37.0%
5/4/2026 3:10:12 PM 21,4 C 36.0%
5/4/2026 3:03:01 PM 21,4 C 37.0%
5/4/2026 2:56:05 PM 21,3 C 38.0%
5/4/2026 2:48:58 PM 21,1 C 36.0%
5/4/2026 2:41:54 PM 21,0 C 37.0%
5/4/2026 2:34:52 PM 21,0 C 37.0%
5/4/2026 2:27:49 PM 21,1 C 36.0%
5/4/2026 2:20:53 PM 21,0 C 39.0%
5/4/2026 2:13:44 PM 21,0 C 36.0%
5/4/2026 2:06:48 PM 20,8 C 36.0%
5/4/2026 1:59:38 PM 20,8 C 35.0%
5/4/2026 1:52:42 PM 20,7 C 36.0%
5/4/2026 1:45:35 PM 20,5 C 39.0%
5/4/2026 1:38:34 PM 20,2 C 38.0%
5/4/2026 1:31:33 PM 19,9 C 41.0%
5/4/2026 1:24:31 PM 19,6 C 42.0%
5/4/2026 1:17:35 PM 19,5 C 40.0%
5/4/2026 1:10:26 PM 19,4 C 38.0%
5/4/2026 1:05:06 PM 19,3 C 43.0%
5/4/2026 12:57:50 PM 19,1 C 44.0%
5/4/2026 12:50:46 PM 18,8 C 44.0%
5/4/2026 12:46:30 PM 18,7 C 39.0%
5/4/2026 12:43:25 PM 18,7 C 44.0%
5/4/2026 12:36:22 PM 18,4 C 44.0%
5/4/2026 12:29:26 PM 18,2 C 45.0%
5/4/2026 12:15:15 PM 17,7 C 47.0%
5/4/2026 12:08:14 PM 17,3 C 46.0%
5/4/2026 12:01:18 PM 17,0 C 43.0%
5/4/2026 12:00:23 PM 16,9 C 48.0%
5/4/2026 11:53:22 AM 16,6 C 43.0%
5/4/2026 11:51:27 AM 16,5 C 48.0%
5/4/2026 11:44:31 AM 16,1 C 49.0%
5/4/2026 11:30:47 AM 15,4 C 52.0%
5/4/2026 11:26:47 AM 15,0 C 46.0%
5/4/2026 11:09:33 AM 13,9 C 55.0%
5/4/2026 11:02:37 AM 13,4 C 57.0%
5/4/2026 9:59:09 AM 9,3 C 62.0%
5/4/2026 9:52:13 AM 8,7 C 63.0%
5/4/2026 9:30:59 AM 7,4 C 64.0%
5/4/2026 9:24:03 AM 6,7 C 65.0%
5/4/2026 9:16:54 AM 6,2 C 66.0%
5/4/2026 9:09:58 AM 5,7 C 66.0%
5/4/2026 8:41:44 AM 3,6 C 69.0%
5/4/2026 8:34:48 AM 3,3 C 70.0%
5/4/2026 8:20:37 AM 2,6 C 69.0%
5/4/2026 8:13:34 AM 2,3 C 71.0%
5/4/2026 8:06:31 AM 1,9 C 70.0%
5/4/2026 7:59:28 AM 1,6 C 70.0%
5/4/2026 7:52:32 AM 1,3 C 71.0%
5/4/2026 7:45:23 AM 0,8 C 71.0%
5/4/2026 7:38:27 AM 0,4 C 70.0%
5/4/2026 7:31:19 AM 0,1 C 70.0%
5/4/2026 7:24:16 AM 0,0 C 69.0%
5/4/2026 7:17:13 AM 0,0 C 68.0%
5/4/2026 7:10:12 AM 0,0 C 68.0%
5/4/2026 7:03:16 AM 0,0 C 68.0%
5/4/2026 6:56:07 AM 0,0 C 68.0%
5/4/2026 6:49:06 AM 0,0 C 68.0%
5/4/2026 6:42:02 AM 0,0 C 67.0%
5/4/2026 6:34:59 AM 0,1 C 67.0%
5/4/2026 6:27:56 AM 0,2 C 67.0%
5/4/2026 6:21:00 AM 0,2 C 66.0%
5/4/2026 6:06:51 AM 0,3 C 67.0%
5/4/2026 5:59:55 AM 0,4 C 66.0%
5/4/2026 5:38:40 AM 0,8 C 66.0%
5/4/2026 5:31:37 AM 0,9 C 66.0%
5/4/2026 5:24:34 AM 1,0 C 65.0%
5/4/2026 5:17:38 AM 1,1 C 65.0%
5/4/2026 5:03:29 AM 1,5 C 64.0%
5/4/2026 4:56:33 AM 1,6 C 64.0%
5/4/2026 4:49:23 AM 1,7 C 64.0%
5/4/2026 4:42:27 AM 1,9 C 64.0%
5/4/2026 4:21:15 AM 2,4 C 63.0%
5/4/2026 4:14:19 AM 2,5 C 63.0%
5/4/2026 3:53:03 AM 3,0 C 62.0%
5/4/2026 3:46:07 AM 3,3 C 62.0%
5/4/2026 2:42:38 AM 4,8 C 63.0%
5/4/2026 2:35:35 AM 4,9 C 63.0%
5/4/2026 2:28:39 AM 5,1 C 62.0%
5/4/2026 2:07:24 AM 5,7 C 61.0%
5/4/2026 2:00:28 AM 5,8 C 60.0%
5/4/2026 1:39:14 AM 6,1 C 60.0%
5/4/2026 1:32:18 AM 6,2 C 59.0%
5/4/2026 12:49:58 AM 6,6 C 58.0%
5/4/2026 12:42:57 AM 6,7 C 57.0%
5/4/2026 12:36:01 AM 6,8 C 57.0%
5/4/2026 12:28:52 AM 7,1 C 55.0%
5/4/2026 12:21:56 AM 7,3 C 55.0%
5/4/2026 12:14:48 AM 7,3 C 54.0%
5/4/2026 12:07:52 AM 7,3 C 55.0%